[[{"header":{"parameterUnit":"m.s-1","parameterCategory":1,"la1":30.2991,"la2":30.254,"lo1":-89.0895,"lo2":-89.0444,"dy":0.0017,"dx":0.0017,"nx":28,"ny":28,"refTime":"2024-06-17T09:00:00:Z","depth":0,"parameterNumber":2,"parameterNumberName":"U-component_of_WINDS"},"data":[0,0,0,0,0,0,0,0,0,0,0,0,0,0,0,0,0,0,0,0,0,0,0,0,0,0,0,0,0,0,0,0,0,0,0,0,0,0,0,0,0,0,0,0,0,0,0,0,0,0,0,0,0,0,0,0,0,0,-7.1352,-7.1353,0,-7.1414,-7.1415,-7.1416,-7.1349,-7.1346,-7.1344,-7.1341,-7.14,-7.1404,-7.1408,0,0,0,0,0,0,0,0,0,0,0,0,0,-7.1172,-7.1176,-7.1352,-7.1353,-7.1354,-7.1414,-7.1415,-7.1416,-7.1349,-7.1346,-7.1343,-7.134,-7.1399,-7.1404,-7.1408,0,0,0,0,0,0,0,0,0,0,0,0,0,-7.1244,-7.1177,-7.1352,-7.1328,-7.1326,-7.1414,-7.1415,-7.1416,-7.135,-7.1346,-7.1342,-7.1338,-7.1397,-7.1403,-7.1409,-7.1523,0,0,-7.1427,-7.143,0,0,0,0,0,0,0,0,-7.124,-7.1251,-7.1331,-7.133,-7.1328,-7.137,-7.1373,-7.1452,-7.1351,-7.1341,-7.1341,-7.1337,-7.1393,-7.1399,-7.1419,-7.1525,-7.1528,-7.1428,-7.1431,-7.1434,-7.1436,0,0,0,0,0,0,0,-7.1235,-7.1248,-7.1377,-7.1332,-7.133,-7.1313,-7.1319,-7.1388,-7.1387,-7.1341,-7.1337,-7.1345,-7.1392,-7.1413,-7.142,-7.1529,-7.1428,-7.1433,-7.1437,-7.1439,-7.1731,-7.1735,0,0,0,0,0,0,-7.1233,-7.1244,-7.1375,-7.1378,-7.1274,-7.1319,-7.1326,-7.136,-7.1387,-7.1387,-7.1348,-7.1342,-7.1405,-7.1413,-7.1422,-7.1555,-7.1434,-7.1439,-7.1443,-7.1727,-7.1732,-7.1737,0,0,0,0,0,0,-7.123,-7.1246,-7.1372,-7.131,-7.1325,-7.1326,-7.1366,-7.1364,-7.1385,-7.1392,-7.1391,-7.1371,-7.1402,-7.1413,-7.1498,-7.1556,-7.1442,-7.1447,-7.1722,-7.1729,-7.1735,-7.1824,0,0,0,0,0,0,-7.1225,-7.1245,-7.1288,-7.1312,-7.1328,-7.1449,-7.1369,-7.1368,-7.1396,-7.1388,-7.1413,-7.1413,-7.14,-7.149,-7.1504,-7.1562,-7.1452,-7.1717,-7.1725,-7.1733,-7.1816,-7.1833,-7.1847,0,0,0,0,0,-7.1219,-7.131,-7.1291,-7.1307,-7.1383,-7.1452,-7.1462,-7.1446,-7.1401,-7.1444,-7.1449,-7.1412,-7.1549,-7.1499,-7.1515,-7.1576,-7.1713,-7.1723,-7.1732,-7.1809,-7.1829,-7.1847,0,0,0,0,0,0,-7.1291,-7.1312,-7.1291,-7.1393,-7.1422,-7.1441,-7.1494,-7.1468,-7.1508,-7.1499,-7.1477,-7.1483,-7.1573,-7.1584,-7.1528,-7.1687,-7.1623,-7.1636,-7.1676,-7.1696,-7.1711,-7.1705,-7.1457,0,0,0,0,0,-7.132,-7.1375,-7.139,-7.1479,-7.1494,-7.1493,-7.1522,-7.1508,-7.1536,-7.1547,-7.1557,-7.1585,-7.1634,-7.1666,-7.1711,-7.1819,-7.1822,-7.1869,-7.1884,-7.1897,-7.1907,-7.1964,-7.1984,-7.1768,-7.1768,-7.1768,0,0,-7.1377,-7.1396,-7.1432,-7.1494,-7.1514,-7.1571,-7.1503,-7.1565,-7.1607,-7.1556,-7.1636,-7.1646,-7.1675,-7.1772,-7.1815,-7.1783,-7.1969,-7.1909,-7.1919,-7.1922,-7.1976,-7.1996,-7.2014,-7.1774,-7.1773,-7.1772,0,0,-7.1511,-7.1532,-7.1607,-7.163,-7.1663,-7.1662,-7.168,-7.1704,-7.1709,-7.179,-7.1753,-7.1802,-7.1887,-7.1909,-7.1932,-7.2078,-7.2045,-7.2094,-7.2174,-7.223,-7.2247,-7.2261,-7.2312,-7.233,-7.2105,-7.2105,-7.2106,0,-7.1578,-7.1663,-7.1649,-7.1715,-7.1743,-7.1703,-7.1778,-7.1801,-7.1846,-7.1866,-7.1831,-7.1937,-7.1954,-7.2055,-7.2091,-7.2111,-7.213,-7.2089,-7.2246,-7.226,-7.2274,-7.2322,-7.2341,-7.2111,-7.211,-7.211,-7.2109,0,-7.1743,-7.1803,-7.186,-7.1907,-7.1942,-7.2013,-7.2008,-7.2045,-7.203,-7.2032,-7.2116,-7.2136,-7.2184,-7.2208,-7.2192,-7.2307,-7.2286,-7.2249,-7.2184,-7.23,-7.2345,-7.2363,-7.2119,-7.2117,-7.2115,-7.2114,0,0,-7.192,-7.1961,-7.1982,-7.2003,-7.2038,-7.2083,-7.2152,-7.2202,-7.2233,-7.2267,-7.2323,-7.2398,-7.2365,-7.239,-7.2377,-7.2427,-7.254,-7.2383,-7.2384,-7.2409,-7.2666,-7.2691,-7.2712,-7.2521,-7.2524,-7.2527,-7.2662,0,-7.2052,-7.2173,-7.2164,-7.2278,-7.2333,-7.2297,-7.2357,-7.2385,-7.239,-7.2437,-7.2442,-7.2494,-7.2447,-7.2462,-7.251,-7.2516,-7.259,-7.2507,-7.257,-7.2573,-7.256,-7.2736,-7.2763,-7.2889,-7.268,-7.2683,-7.2685,0,-7.2222,-7.2264,-7.2384,-7.2412,-7.2434,-7.2489,-7.2534,-7.258,-7.261,-7.2611,-7.2642,-7.2621,-7.269,-7.2627,-7.2721,-7.2664,-7.2691,-7.2698,-7.2703,-7.2705,-7.2633,-7.274,-7.293,-7.2948,-7.2713,-7.271,-7.2708,0,-7.2336,-7.2423,-7.2505,-7.2525,-7.256,-7.2599,-7.2615,-7.2643,-7.2673,-7.2713,-7.2733,-7.278,-7.2805,-7.2842,-7.2834,-7.2789,-7.293,-7.2866,-7.293,-7.293,-7.2958,-7.2955,-7.3151,-7.2981,-7.298,-7.298,-7.298,0,-7.2483,-7.2557,-7.2557,-7.2608,-7.269,-7.2679,-7.276,-7.2772,-7.2797,-7.2848,-7.2822,-7.287,-7.2859,-7.2908,-7.2903,-7.298,-7.2993,-7.2994,-7.299,-7.2994,-7.2994,-7.3008,-7.2997,-7.2985,-7.2984,-7.2983,-7.2982,0,-7.2622,-7.2625,-7.2713,-7.2741,-7.2749,-7.2808,-7.2831,-7.2878,-7.2883,-7.2949,-7.2963,-7.297,-7.3026,-7.3024,-7.3086,-7.3083,-7.3178,-7.3167,-7.3168,-7.3164,-7.3227,-7.322,-7.3436,-7.3463,-7.3278,-7.328,-7.3282,0,-7.2714,-7.277,-7.2805,-7.2838,-7.2858,-7.2912,-7.2944,-7.2937,-7.2971,-7.3012,-7.3054,-7.3108,-7.315,-7.3241,-7.325,-7.3299,-7.3286,-7.3359,-7.3293,-7.3294,-7.3284,-7.3279,-7.3284,-7.337,-7.3372,-7.3374,-7.3375,0,-7.2875,-7.2875,-7.2923,-7.2973,-7.3013,-7.3051,-7.3086,-7.3115,-7.3111,-7.3152,-7.3209,-7.3242,-7.3308,-7.3361,-7.3408,-7.3423,-7.3398,-7.3397,-7.3414,-7.3416,-7.3413,-7.3413,-7.32,-7.3391,-7.3389,-7.3388,-7.3387,-7.3387,-7.2991,-7.304,-7.3072,-7.3127,-7.3154,-7.3188,-7.3234,-7.3246,-7.3294,-7.3348,-7.3341,-7.3405,-7.3436,-7.3496,-7.3517,-7.3566,-7.354,-7.3565,-7.357,-7.3576,-7.3582,-7.3409,-7.3575,-7.3574,-7.3574,-7.3574,-7.3573,0,-7.3149,-7.317,-7.3221,-7.3272,-7.3315,-7.3292,-7.333,-7.3367,-7.3424,-7.3456,-7.3499,-7.3566,-7.3618,-7.3634,-7.3684,-7.372,-7.371,-7.3734,-7.3729,-7.3732,-7.3603,-7.3583,-7.3741,-7.3741,-7.3741,-7.3741,-7.3741,-7.3741,-7.3236,-7.3317,-7.3321,-7.3415,-7.3434,-7.3498,-7.3522,-7.3553,-7.3578,-7.3654,-7.3698,-7.3709,-7.3734,-7.3787,-7.3833,-7.3836,-7.3855,-7.3882,-7.388,-7.3759,-7.3742,-7.3725,-7.3706,-7.3887,-7.3887,-7.4005,-7.4006,-7.4007]},{"header":{"parameterUnit":"m.s-1","parameterCategory":1,"la1":30.2991,"la2":30.254,"lo1":-89.0895,"lo2":-89.0444,"dy":0.0017,"dx":0.0017,"nx":28,"ny":28,"refTime":"2024-06-17T09:00:00:Z","depth":0,"parameterNumber":3,"parameterNumberName":"V-component_of_WINDS"},"data":[0,0,0,0,0,0,0,0,0,0,0,0,0,0,0,0,0,0,0,0,0,0,0,0,0,0,0,0,0,0,0,0,0,0,0,0,0,0,0,0,0,0,0,0,0,0,0,0,0,0,0,0,0,0,0,0,0,0,2.7917,2.7917,0,2.7961,2.7962,2.7962,2.7997,2.7997,2.7997,2.7998,2.804,2.8041,2.8041,0,0,0,0,0,0,0,0,0,0,0,0,0,2.7859,2.786,2.7917,2.7917,2.7918,2.7961,2.7962,2.7962,2.7997,2.7997,2.7997,2.7998,2.804,2.804,2.8041,0,0,0,0,0,0,0,0,0,0,0,0,0,2.7892,2.786,2.7917,2.794,2.7943,2.7961,2.7962,2.7963,2.7996,2.7997,2.7997,2.7998,2.8039,2.804,2.8042,2.8039,0,0,2.8045,2.8046,0,0,0,0,0,0,0,0,2.789,2.7894,2.7936,2.7939,2.7942,2.7974,2.7957,2.7988,2.7996,2.7976,2.7998,2.7998,2.8017,2.802,2.8027,2.8041,2.8043,2.8045,2.8046,2.8047,2.8047,0,0,0,0,0,0,0,2.7888,2.7892,2.7934,2.7937,2.794,2.7948,2.7953,2.7963,2.7993,2.7978,2.798,2.7985,2.8019,2.8026,2.8029,2.8043,2.8045,2.8046,2.8047,2.8048,2.8059,2.8058,0,0,0,0,0,0,2.7882,2.789,2.7933,2.7936,2.7917,2.7949,2.7954,2.7963,2.7993,2.7998,2.7985,2.7987,2.8024,2.8027,2.803,2.803,2.8047,2.8048,2.8049,2.8059,2.8058,2.8058,0,0,0,0,0,0,2.7881,2.7886,2.7931,2.7914,2.792,2.7949,2.7958,2.7964,2.7971,2.7999,2.8004,2.7987,2.8024,2.8029,2.8037,2.8032,2.8048,2.8049,2.806,2.8059,2.8058,2.8029,0,0,0,0,0,0,2.7879,2.7885,2.7885,2.7913,2.7921,2.7938,2.7958,2.7964,2.7973,2.7976,2.8002,2.8007,2.8025,2.8035,2.8038,2.8034,2.805,2.806,2.8059,2.8058,2.8031,2.8028,2.8025,0,0,0,0,0,2.7877,2.7874,2.7884,2.7889,2.7921,2.7937,2.7941,2.7964,2.7973,2.7973,2.7991,2.8006,2.8032,2.8036,2.804,2.8035,2.806,2.8059,2.8058,2.8032,2.8028,2.8025,0,0,0,0,0,0,2.7842,2.7878,2.789,2.7896,2.7914,2.7943,2.7943,2.7959,2.7973,2.7975,2.8001,2.8006,2.8012,2.8025,2.8028,2.8035,2.8048,2.8048,2.8027,2.8023,2.8021,2.8017,2.8051,0,0,0,0,0,2.7835,2.7846,2.7876,2.7879,2.7887,2.7914,2.7921,2.7937,2.7956,2.7963,2.7982,2.7998,2.801,2.8018,2.803,2.8033,2.8039,2.8032,2.8029,2.8027,2.8026,2.8029,2.8026,2.8055,2.8055,2.8055,0,0,2.782,2.7842,2.7847,2.7872,2.7888,2.7898,2.792,2.7929,2.7937,2.7964,2.7974,2.7988,2.8008,2.8014,2.8018,2.8025,2.802,2.8025,2.8023,2.8024,2.8028,2.8025,2.8023,2.8054,2.8054,2.8054,0,0,2.78,2.7817,2.7821,2.7837,2.786,2.7878,2.7879,2.7907,2.7918,2.7929,2.795,2.7959,2.7979,2.7993,2.8003,2.7989,2.8004,2.7993,2.7977,2.798,2.7978,2.7976,2.7971,2.7969,2.7992,2.7992,2.7992,0,2.7778,2.7795,2.7821,2.783,2.7841,2.7868,2.7873,2.7886,2.7912,2.7919,2.7927,2.7954,2.7969,2.7979,2.7976,2.7983,2.7985,2.7989,2.7976,2.7975,2.7973,2.7969,2.7967,2.799,2.799,2.7991,2.7991,0,2.7768,2.778,2.7781,2.7807,2.7818,2.7825,2.7851,2.7859,2.7874,2.7891,2.7902,2.7922,2.794,2.7943,2.7957,2.7956,2.7959,2.7971,2.7985,2.7969,2.7965,2.7964,2.7988,2.7989,2.7989,2.799,0,0,2.7725,2.7767,2.7767,2.778,2.7809,2.7818,2.7826,2.7845,2.7851,2.7868,2.7876,2.7893,2.7905,2.7916,2.7933,2.7935,2.7924,2.7947,2.7948,2.7942,2.7923,2.7914,2.7912,2.7934,2.7934,2.7934,2.7922,0,2.7709,2.7726,2.775,2.7759,2.777,2.7797,2.7804,2.7822,2.7839,2.785,2.7868,2.788,2.7895,2.7902,2.7906,2.7924,2.792,2.7926,2.7941,2.7941,2.7934,2.791,2.79,2.7887,2.792,2.792,2.792,0,2.7691,2.7709,2.772,2.7749,2.7755,2.7761,2.7781,2.7792,2.7813,2.7825,2.7838,2.7857,2.7866,2.7879,2.7893,2.7896,2.7904,2.7914,2.7914,2.7916,2.7929,2.7911,2.7884,2.7882,2.7918,2.7918,2.7918,0,2.7659,2.7686,2.7696,2.7706,2.774,2.7744,2.7758,2.7781,2.7791,2.7808,2.7815,2.7832,2.7842,2.7854,2.7877,2.7884,2.7888,2.7903,2.7898,2.7897,2.7897,2.7897,2.787,2.7902,2.7902,2.7902,2.7902,0,2.7638,2.7643,2.7682,2.7688,2.7695,2.7723,2.7729,2.7745,2.7765,2.7775,2.7798,2.7807,2.7836,2.7847,2.7865,2.7874,2.7878,2.7887,2.7892,2.7885,2.7884,2.789,2.7892,2.7902,2.7902,2.7902,2.7902,0,2.7603,2.7629,2.7642,2.7674,2.7682,2.7686,2.7714,2.772,2.7739,2.7751,2.7755,2.7784,2.7799,2.7823,2.7844,2.7856,2.7862,2.787,2.7855,2.7858,2.7852,2.7852,2.7829,2.7827,2.786,2.7859,2.7859,0,2.7587,2.7593,2.7626,2.7635,2.7649,2.7663,2.7674,2.7702,2.7712,2.7738,2.7742,2.7759,2.7774,2.7797,2.7819,2.7836,2.7844,2.7835,2.7847,2.784,2.7844,2.7844,2.7844,2.7832,2.7831,2.7831,2.7831,0,2.7558,2.7571,2.7587,2.7607,2.7621,2.7638,2.7656,2.7662,2.7693,2.7704,2.7721,2.7733,2.7756,2.7772,2.7793,2.7807,2.7824,2.7827,2.7827,2.782,2.7811,2.7816,2.7848,2.7827,2.7827,2.7828,2.7828,2.7828,2.7532,2.7538,2.7564,2.7581,2.7598,2.7615,2.7623,2.7644,2.7659,2.7681,2.7696,2.7712,2.7734,2.7763,2.7777,2.7789,2.7796,2.7796,2.7796,2.7795,2.7793,2.781,2.7793,2.7793,2.7793,2.7793,2.7793,0,2.7504,2.7522,2.7538,2.7564,2.7577,2.7594,2.7615,2.7625,2.7639,2.7659,2.7675,2.7694,2.7711,2.7735,2.7754,2.7759,2.7767,2.7763,2.7762,2.7765,2.7785,2.7784,2.7756,2.7756,2.7756,2.7756,2.7756,2.7756,2.7491,2.7503,2.7519,2.754,2.7558,2.7574,2.7585,2.7601,2.7617,2.7638,2.7653,2.767,2.7691,2.7712,2.7728,2.7735,2.774,2.7734,2.7743,2.776,2.7764,2.7767,2.7766,2.7735,2.7735,2.7722,2.7722,2.7722]}]]